FW5910 Weather Reports


time (UTC)temp
F
wind
direction
speed
knots
gust
knots
rain 1hr
in
rain 24hr
in
rain mn
in
humidity
%
barometer
mb
20260906193403 66 0 0.9 2.6 0.00 0.07 0.00 50 1014.1
20260906192901 66 150 0.9 2.6 0.00 0.07 0.00 53 1014.1
20260906192400 66 132 1.7 2.6 0.00 0.07 0.00 51 1014.1
20260906191902 66 132 0.9 2.6 0.00 0.07 0.00 51 1014.1
20260906191401 66 130 0.9 2.6 0.00 0.07 0.00 49 1014.1
20260906190903 66 130 0.9 2.6 0.00 0.07 0.00 50 1014.2
20260906190400 67 129 0.9 1.7 0.00 0.07 0.00 49 1014.2
20260906185902 67 132 0.0 1.7 0.00 0.07 0.00 50 1014.3
20260906185400 66 129 0.9 2.6 0.00 0.07 0.00 50 1014.2
20260906184902 66 129 1.7 4.3 0.00 0.07 0.00 52 1014.3
20260906183902 65 227 1.7 5.2 0.00 0.07 0.00 52 1014.5
20260906183401 64 67 2.6 6.1 0.00 0.07 0.00 53 1014.6
20260906182401 63 116 1.7 3.5 0.00 0.07 0.00 56 1014.6
20260906181901 63 116 2.6 5.2 0.00 0.07 0.00 57 1014.8
20260906181404 63 117 2.6 5.2 0.00 0.07 0.00 55 1014.8
20260906180406 63 117 2.6 5.2 0.00 0.07 0.00 56 1015.0
20260906175405 62 0 1.7 2.6 0.00 0.07 0.00 57 1015.0
20260906174904 62 0 1.7 3.5 0.00 0.07 0.00 58 1014.9
20260906174404 62 0 1.7 3.5 0.00 0.07 0.00 57 1015.0
20260906173402 61 0 2.6 3.5 0.00 0.07 0.00 59 1015.1
20260906172901 61 0 3.5 4.3 0.00 0.07 0.00 58 1015.0
20260906172401 61 0 3.5 4.3 0.00 0.07 0.00 59 1015.0
20260906171901 61 0 3.5 4.3 0.00 0.07 0.00 61 1015.0
20260906171402 60 0 2.6 4.3 0.00 0.07 0.00 62 1015.1
20260906170401 60 0 2.6 4.3 0.00 0.07 0.00 62 1015.2
20260906165901 59 0 2.6 4.3 0.00 0.07 0.00 62 1015.1
20260906165401 59 0 2.6 3.5 0.00 0.07 0.00 62 1015.3
20260906164901 59 0 2.6 3.5 0.00 0.07 0.00 63 1015.4
20260906164401 59 0 1.7 7.0 0.00 0.07 0.00 63 1015.4
20260906163904 58 0 2.6 7.0 0.00 0.07 0.00 63 1015.4
20260906162405 58 0 1.7 3.5 0.00 0.07 0.00 62 1015.5
20260906161903 58 0 1.7 4.3 0.00 0.07 0.00 62 1015.4
20260906160901 58 0 1.7 3.5 0.00 0.07 0.00 64 1015.5
20260906155901 57 0 2.6 3.5 0.00 0.07 0.00 64 1015.4
20260906155401 57 0 2.6 4.3 0.00 0.07 0.00 64 1015.5
20260906154900 57 0 2.6 4.3 0.00 0.07 0.00 66 1015.6
20260906153900 58 0 1.7 3.5 0.00 0.07 0.00 62 1015.9
20260906152901 58 0 0.9 2.6 0.00 0.07 0.00 63 1015.7
20260906152401 57 0 0.9 2.6 0.00 0.07 0.00 64 1015.7
20260906151902 56 0 0.9 2.6 0.00 0.07 0.00 65 1015.7
20260906151401 55 0 0.9 3.5 0.00 0.07 0.00 67 1015.9
20260906150901 55 0 0.9 3.5 0.00 0.07 0.00 67 1015.9
20260906145859 54 348 1.7 4.3 0.00 0.07 0.00 67 1016.0
20260906143843 54 325 0.9 3.5 0.00 0.07 0.00 68 1016.0
20260906143343 54 350 0.0 3.5 0.00 0.07 0.00 67 1016.0
20260906142339 54 350 0.9 3.5 0.00 0.07 0.00 68 1016.1
20260906141839 54 344 1.7 3.5 0.00 0.07 0.00 68 1016.0
20260906141339 54 340 1.7 4.3 0.00 0.07 0.00 68 1016.0
20260906140837 54 321 1.7 4.3 0.00 0.07 0.00 69 1015.9
20260906135335 55 340 0.9 2.6 0.00 0.07 0.00 70 1015.6
20260906134833 55 341 0.9 2.6 0.00 0.07 0.00 70 1015.7
20260906134334 55 340 0.9 3.5 0.00 0.07 0.00 70 1015.9
20260906133832 55 340 1.7 3.5 0.00 0.07 0.00 70 1015.9
20260906133337 55 346 1.7 3.5 0.00 0.07 0.00 70 1015.7
20260906132831 55 337 1.7 6.1 0.00 0.07 0.00 71 1016.0
20260906131829 55 337 0.9 2.6 0.00 0.07 0.00 70 1015.9
20260906131329 55 152 0.9 2.6 0.00 0.07 0.00 69 1015.7
20260906130829 56 320 0.9 1.7 0.00 0.07 0.00 69 1015.6
20260906130330 56 348 0.9 2.6 0.00 0.07 0.00 69 1015.5
20260906125829 56 355 1.7 4.3 0.00 0.07 0.00 68 1015.6
20260906125330 56 329 2.6 7.8 0.00 0.07 0.00 68 1015.5
20260906124829 56 344 1.7 7.8 0.00 0.07 0.00 69 1015.5
20260906124329 56 59 0.9 6.1 0.00 0.07 0.00 69 1015.5
20260906123830 56 315 0.9 1.7 0.00 0.07 0.00 68 1015.9
20260906122829 56 315 0.9 4.3 0.00 0.07 0.00 70 1016.1
20260906122329 56 315 1.7 4.3 0.00 0.07 0.00 70 1016.1
20260906121829 56 306 2.6 4.3 0.00 0.07 0.00 70 1016.0
20260906121329 57 302 2.6 4.3 0.00 0.07 0.00 69 1016.0
20260906120830 57 329 1.7 4.3 0.00 0.07 0.00 68 1015.9
20260906120330 58 49 2.6 6.1 0.00 0.07 0.00 67 1016.1
20260906115329 58 119 3.5 6.1 0.00 0.07 0.00 68 1016.4
20260906114830 58 115 2.6 5.2 0.00 0.07 0.00 68 1016.5
20260906114328 58 113 1.7 5.2 0.00 0.07 0.00 69 1016.5
20260906113829 57 100 0.0 4.3 0.00 0.07 0.00 69 1016.5
20260906112829 57 252 0.0 1.7 0.00 0.07 0.00 68 1016.7
20260906112330 57 252 0.9 1.7 0.00 0.07 0.00 68 1016.6
20260906111830 57 253 1.7 4.3 0.00 0.07 0.00 68 1016.6
20260906111327 57 253 1.7 5.2 0.00 0.07 0.00 68 1016.5
20260906110827 57 257 2.6 6.1 0.00 0.07 0.00 68 1016.5
20260906110328 57 122 2.6 7.8 0.00 0.07 0.00 69 1016.6
20260906105826 56 125 0.9 7.8 0.00 0.07 0.00 71 1016.8
20260906105327 55 207 0.0 0.0 0.00 0.07 0.00 70 1017.1
20260906104824 55 207 0.0 1.7 0.00 0.07 0.00 70 1016.9
20260906104325 56 194 2.6 9.6 0.00 0.07 0.00 70 1016.8
20260906103825 55 194 4.3 9.6 0.00 0.07 0.00 69 1016.7
20260906103324 54 111 2.6 8.7 0.00 0.07 0.00 72 1016.5
20260906102823 54 90 1.7 3.5 0.00 0.07 0.00 72 1016.2
20260906102322 54 330 1.7 3.5 0.00 0.07 0.00 71 1016.0
20260906101817 55 285 0.9 3.5 0.00 0.07 0.00 70 1015.7
20260906101311 55 179 0.9 3.5 0.00 0.07 0.00 69 1016.1
20260906100808 55 160 0.9 4.3 0.00 0.07 0.00 69 1016.4
20260906100306 55 231 1.7 4.3 0.00 0.07 0.00 69 1016.7
20260906095306 55 221 1.7 5.2 0.00 0.07 0.00 69 1016.6
20260906094806 55 205 1.7 6.1 0.00 0.07 0.00 68 1016.3
20260906094305 55 205 2.6 6.1 0.00 0.07 0.00 69 1016.5
20260906093806 55 218 2.6 5.2 0.00 0.07 0.00 69 1016.6
20260906093305 55 230 1.7 4.3 0.00 0.07 0.00 68 1016.6
20260906091805 55 217 1.7 4.3 0.00 0.07 0.00 69 1016.6
20260906091305 55 259 1.7 4.3 0.00 0.07 0.00 69 1016.5
20260906090805 56 234 0.9 3.5 0.00 0.07 0.00 70 1016.4
20260906090305 55 232 0.9 3.5 0.00 0.07 0.00 70 1016.3
20260906085306 56 168 0.9 3.5 0.00 0.07 0.00 71 1016.1
20260906084306 56 242 2.6 7.0 0.00 0.07 0.00 70 1016.0
20260906083803 56 237 1.7 5.2 0.00 0.07 0.00 70 1016.1
20260906083303 56 0 0.9 2.6 0.00 0.07 0.00 72 1016.1
20260906082804 56 199 1.7 6.1 0.00 0.07 0.00 73 1016.1
20260906082305 56 128 1.7 6.1 0.00 0.07 0.00 73 1016.2
20260906081803 56 285 1.7 3.5 0.00 0.07 0.00 73 1016.2
20260906081303 56 313 1.7 3.5 0.00 0.07 0.00 73 1016.3
20260906080802 56 249 1.7 3.5 0.00 0.07 0.00 72 1016.3
20260906080302 56 242 0.9 3.5 0.00 0.07 0.00 71 1016.2
20260906075301 57 0 0.9 2.6 0.00 0.07 0.00 70 1016.3
20260906074801 57 316 0.0 0.9 0.00 0.07 0.00 69 1016.6
20260906074302 57 0 0.9 2.6 0.00 0.07 0.00 69 1016.7
20260906073802 57 317 0.9 3.5 0.00 0.07 0.00 70 1016.7
20260906072801 57 173 1.7 3.5 0.00 0.07 0.00 71 1016.6
20260906072301 57 306 1.7 3.5 0.00 0.07 0.00 72 1016.4
20260906071801 57 249 1.7 3.5 0.00 0.07 0.00 73 1016.4
20260906070803 57 0 0.0 3.5 0.00 0.07 0.00 70 1016.5
20260906070303 58 310 1.7 5.2 0.00 0.07 0.00 71 1016.5
20260906065804 57 310 1.7 5.2 0.00 0.07 0.00 70 1016.6
20260906065305 57 120 0.9 5.2 0.00 0.07 0.00 74 1016.7
20260906064805 57 49 0.0 0.9 0.00 0.07 0.00 72 1016.7
20260906064303 56 58 0.0 1.7 0.00 0.07 0.00 72 1016.9
20260906063805 56 61 0.9 1.7 0.00 0.07 0.00 70 1016.8
20260906063302 57 61 0.9 1.7 0.00 0.07 0.00 70 1016.7
20260906062802 57 0 0.9 1.7 0.00 0.07 0.00 70 1016.7
20260906062305 57 0 0.9 2.6 0.00 0.07 0.00 70 1016.7
20260906061803 57 0 0.9 4.3 0.00 0.07 0.00 71 1016.7
20260906061305 57 76 0.9 4.3 0.00 0.07 0.00 70 1016.8
20260906060803 57 9 0.0 2.6 0.00 0.07 0.00 70 1017.1
20260906060303 57 0 0.9 3.5 0.00 0.07 0.00 70 1017.2
20260906055804 58 0 1.7 7.0 0.00 0.07 0.07 69 1017.1
20260906055306 58 0 1.7 7.0 0.00 0.07 0.07 68 1016.9
20260906054802 60 0 0.9 6.1 0.00 0.07 0.07 67 1016.8
20260906054301 60 198 1.7 7.8 0.00 0.07 0.07 63 1016.8
20260906053801 58 122 1.7 7.8 0.04 0.07 0.07 64 1016.6
20260906053302 58 289 1.7 5.2 0.07 0.07 0.07 69 1016.6
20260906052801 58 250 1.7 5.2 0.07 0.07 0.07 67 1016.6
20260906052305 57 0 2.6 5.2 0.07 0.07 0.07 71 1016.6
20260906051802 57 0 2.6 5.2 0.07 0.07 0.07 71 1016.7
20260906051301 58 0 2.6 5.2 0.07 0.07 0.07 71 1016.8
20260906050802 57 0 2.6 4.3 0.07 0.07 0.07 71 1016.8
20260906050300 58 0 2.6 5.2 0.07 0.07 0.07 71 1016.9
20260906045801 58 0 1.7 5.2 0.07 0.07 0.07 71 1017.1
20260906045305 59 0 1.7 4.3 0.07 0.07 0.07 68 1017.2
20260906044302 61 0 1.7 4.3 0.07 0.07 0.06 63 1017.7
20260906043803 64 0 2.6 7.8 0.03 0.03 0.02 57 1017.5
20260906042801 67 213 1.7 9.6 0.00 0.00 0.00 46 1017.2
20260906042301 68 163 2.6 11.3 0.00 0.00 0.00 45 1016.7
20260906041801 68 140 3.5 11.3 0.00 0.00 0.00 43 1016.7
20260906041301 68 124 4.3 9.6 0.00 0.00 0.00 45 1016.7
20260906040801 68 207 5.2 9.6 0.00 0.00 0.00 44 1016.6
20260906040301 66 0 2.6 9.6 0.00 0.00 0.00 45 1016.5
20260906035801 64 0 0.9 8.7 0.00 0.00 0.00 52 1016.3
20260906035305 63 0 0.9 2.6 0.00 0.00 0.00 49 1016.4
20260906034801 63 0 1.7 3.5 0.00 0.00 0.00 51 1016.2
20260906034301 63 0 1.7 3.5 0.00 0.00 0.00 51 1016.3
20260906033302 63 0 1.7 3.5 0.00 0.00 0.00 54 1016.2
20260906032801 63 0 1.7 4.3 0.00 0.00 0.00 52 1016.1
20260906032305 63 0 0.0 4.3 0.00 0.00 0.00 51 1016.0
20260906031801 63 0 0.0 0.0 0.00 0.00 0.00 53 1016.1
20260906031300 63 0 0.0 0.0 0.00 0.00 0.00 54 1016.0
20260906030803 63 0 0.0 0.0 0.00 0.00 0.00 59 1015.9
20260906030300 63 0 0.0 0.0 0.00 0.00 0.00 58 1015.9
20260906025802 63 0 0.0 0.0 0.00 0.00 0.00 58 1015.9
20260906025306 64 0 0.0 0.0 0.00 0.00 0.00 57 1015.9
20260906024803 64 0 0.0 0.0 0.00 0.00 0.00 56 1015.9
20260906024301 64 0 0.0 0.0 0.00 0.00 0.00 55 1015.7
20260906023803 64 0 0.0 0.0 0.00 0.00 0.00 53 1015.6
20260906023301 65 0 0.0 0.0 0.00 0.00 0.00 53 1015.6
20260906022301 65 0 0.0 0.0 0.00 0.00 0.00 48 1015.4
20260906021803 66 0 0.0 0.0 0.00 0.00 0.00 47 1015.4
20260906021303 66 0 0.0 0.0 0.00 0.00 0.00 47 1015.4
20260906020801 66 0 0.0 0.0 0.00 0.00 0.00 45 1015.4
20260906020300 66 0 0.0 1.7 0.00 0.00 0.00 48 1015.4
20260906015802 67 0 0.0 1.7 0.00 0.00 0.00 46 1015.3
20260906015305 67 0 0.0 0.0 0.00 0.00 0.00 43 1015.3
20260906014302 68 0 0.0 0.0 0.00 0.00 0.00 43 1015.5
20260906013301 68 0 0.9 2.6 0.00 0.00 0.00 42 1015.5
20260906012301 68 0 0.9 1.7 0.00 0.00 0.00 40 1015.6
20260906011300 69 38 0.0 1.7 0.00 0.00 0.00 42 1015.5
20260906010803 69 38 0.9 2.6 0.00 0.00 0.00 41 1015.4
20260906005801 69 343 1.7 3.5 0.00 0.00 0.00 37 1015.5
20260906005301 70 345 1.7 4.3 0.00 0.00 0.00 37 1015.4
20260906004804 70 348 1.7 4.3 0.00 0.00 0.00 37 1015.5
20260906004302 70 331 1.7 3.5 0.00 0.00 0.00 37 1015.4
20260906003303 71 26 1.7 3.5 0.00 0.00 0.00 38 1015.4
20260906002803 71 331 0.9 3.5 0.00 0.00 0.00 36 1015.6
20260906002300 72 317 0.9 3.5 0.00 0.00 0.00 34 1015.6
20260906001801 73 355 0.9 2.6 0.00 0.00 0.00 32 1015.7
20260906000801 75 16 0.0 1.7 0.00 0.00 0.00 31 1015.7
20260906000300 75 25 0.0 1.7 0.00 0.00 0.00 32 1015.9
20260905235301 75 32 0.0 1.7 0.00 0.00 0.00 32 1015.9
20260905234757 74 33 0.0 0.9 0.00 0.00 0.00 30 1016.0
20260905233746 74 64 0.0 1.7 0.00 0.00 0.00 34 1016.1
20260905233239 74 55 0.0 1.7 0.00 0.00 0.00 33 1016.1
20260905232239 72 355 0.0 2.6 0.00 0.00 0.00 34 1016.2
20260905231238 71 22 0.9 1.7 0.00 0.00 0.00 36 1016.2
20260905230737 71 38 0.9 2.6 0.00 0.00 0.00 37 1016.3
20260905230237 71 38 0.9 2.6 0.00 0.00 0.00 34 1016.4
20260905225738 71 42 0.9 2.6 0.00 0.00 0.00 33 1016.4
20260905225238 71 68 0.9 2.6 0.00 0.00 0.00 33 1016.4
20260905224235 71 208 1.7 5.2 0.00 0.00 0.00 33 1016.5
20260905223735 71 214 0.9 5.2 0.00 0.00 0.00 36 1016.5
20260905223232 72 67 0.9 2.6 0.00 0.00 0.00 36 1016.6
20260905221730 71 85 0.0 0.0 0.00 0.00 0.00 36 1016.7
20260905220731 71 88 0.9 3.5 0.00 0.00 0.00 35 1016.8
20260905215723 71 283 1.7 5.2 0.00 0.00 0.00 34 1017.1
20260905215217 70 327 0.9 3.5 0.00 0.00 0.00 34 1017.1
20260905214711 69 275 0.9 3.5 0.00 0.00 0.00 39 1017.2
20260905214204 69 113 1.7 5.2 0.00 0.00 0.00 39 1017.2
20260905213705 69 112 1.7 5.2 0.00 0.00 0.00 37 1017.3
20260905213205 69 206 1.7 3.5 0.00 0.00 0.00 37 1017.3
20260905212707 69 115 0.9 3.5 0.00 0.00 0.00 38 1017.4
20260905212203 69 131 0.9 3.5 0.00 0.00 0.00 40 1017.4
20260905211703 69 71 0.9 3.5 0.00 0.00 0.00 40 1017.4
20260905211204 69 103 0.9 3.5 0.00 0.00 0.00 39 1017.5
20260905210703 69 228 1.7 4.3 0.00 0.00 0.00 41 1017.5
20260905210202 68 256 1.7 4.3 0.00 0.00 0.00 39 1017.6
20260905205701 68 312 1.7 3.5 0.00 0.00 0.00 38 1017.5
20260905205201 68 82 0.9 2.6 0.00 0.00 0.00 40 1017.5
20260905204702 68 93 0.9 2.6 0.00 0.00 0.00 45 1017.6
20260905204201 67 93 1.7 2.6 0.00 0.00 0.00 44 1017.6
20260905203702 67 114 0.9 2.6 0.00 0.00 0.00 44 1017.6
20260905203201 66 114 0.9 5.2 0.00 0.00 0.00 46 1017.6
20260905202702 65 125 1.7 5.2 0.00 0.00 0.00 47 1017.7
20260905201703 66 125 1.7 5.2 0.00 0.00 0.00 45 1017.8
20260905201201 67 196 0.9 1.7 0.00 0.00 0.00 46 1017.8
20260905200701 67 285 0.9 2.6 0.00 0.00 0.00 46 1017.8
20260905200201 65 281 0.9 2.6 0.00 0.00 0.00 49 1017.8
20260905195203 64 95 2.6 5.2 0.00 0.00 0.00 50 1017.9
20260905194703 64 118 1.7 3.5 0.00 0.00 0.00 51 1017.9
20260905194202 63 108 0.9 1.7 0.00 0.00 0.00 54 1018.0
20260905193702 63 109 0.9 2.6 0.00 0.00 0.00 54 1017.9